Погода в Чучкове

Россия / Вологодская область     59°35′53″N   41°14′27″E
темп.,
°C
ветер,
м/с
пор.,
м/с
влажн.,
%
обл.,
%
осадки,
мм/ч
давл.,
гПа
погр.,
м
8 марта, пн
пн800:00−8св1397100 1.0 991140
03:00−9св3795100 1.7 992389
06:00−11св4994100 0.6 994489
09:00−12ссв4992100 0.9 996552
12:00−11ссв4889100 0.2 999634
15:00−10с4888100 0.3 1002706
18:00−13с4991100 0.1 1005537
21:00−17с31094100 0.1 1008349
9 марта, вт
вт900:00−21с369777 0.0 1010136
03:00−24с369861 0.0 1013114
06:00−26с269759 0.0 1014122
09:00−24с259471 0.0 1017238
12:00−20с359159 0.0 1018409
15:00−18с368977 0.0 1019554
18:00−22с269598 0.0 1020111
21:00−26ссв259663 0.0 1023111
10 марта, ср
ср1000:00−28с23960 0.0 102445
03:00−29с22960 0.0 102622
06:00−29ссз22950 0.0 102619
09:00−23зсз13923 0.0 1027158
12:00−17зсз24860 0.0 1026463
15:00−14зсз358828 0.0 1026564
18:00−17сз2396100 0.0 102645
21:00−20зсз239987 0.1 102646
11 марта, чт
чт1100:00−20зсз2310069 0.0 102737
03:00−20зсз2310072 0.0 102755
06:00−20зсз239951 0.0 102751
09:00−16зсз249226 0.0 1028178
12:00−10зсз24870 0.0 1027325
15:00−7з24820 0.0 1026498
18:00−12зюз23920 0.0 102643
21:00−16зюз22950 0.0 102720
12 марта, пт
пт1200:00−18юз239734 0.0 102748
03:00−20ююз239928 0.0 102632
06:00−21ююз23987 0.0 102543
09:00−16ю38894 0.0 1024290
12:00−11ю49780 0.0 1022539
15:00−9ю48850 0.0 1020559
18:00−11ююв3119285 0.0 1018441
21:00−13ююв4129266 0.0 1017431